Flag for Germany Weather past 2 weeks in Mühlacker, Baden-Württemberg, Germany

Now
55 °F

Partly sunny.


Feels Like: 54 °F
Forecast: 43 / 69 °F
Wind: 7 mph from North

Location: Stuttgart-Echterdingen

Current Time: May 27, 2015 at 7:53:11 PM

Latest Report: May 27, 2015 at 7:20 PM


Visibility: N/A

Pressure: 30.18 "Hg

Humidity: 55%

Dew point: 39 °F

Location of MühlackerLocation

Historic Weather in Mühlacker — Graph

°F

Mühlacker temperature yesterday

Maximum temperature yesterday: 57 °F (at 12:50 PM)
Minimum temperature yesterday: 50 °F (at 11:20 PM)
Average temperature yesterday: 54 °F

Past Weeks' High & Low Weather Summary

 TemperatureHumidityPressure
High82 °F (May 12, 6:20 PM)100% (May 15, 4:20 AM)30.30 "Hg (May 15, 4:20 AM)
Low37 °F (May 22, 5:50 AM)25% (May 18, 6:20 PM)29.74 "Hg (May 18, 6:20 PM)
Average57 °F69%30.05 "Hg
* Reported May 12 6:20 PM — May 27 6:50 PM, Mühlacker, Weather by CustomWeather, © 2015

Note: Actual official high and low records may vary slightly from our data, if they occured in-between our weather recording intervals... More about our weather records

Advertising

Mühlacker weather history for previous 24 hours

 ConditionsComfort  
Time TempWeatherWind HumidityBarometerVisibility
6:50 PM
Wed, May 27
57 °FScattered clouds.8 mph51%30.18 "HgN/A
6:20 PM57 °FScattered clouds.5 mph51%30.18 "HgN/A
5:50 PM57 °FScattered clouds.7 mph51%30.18 "HgN/A
5:20 PM57 °FScattered clouds.5 mph55%30.18 "HgN/A
4:50 PM57 °FScattered clouds.7 mph55%30.21 "HgN/A
4:20 PM57 °FScattered clouds.5 mph55%30.21 "HgN/A
3:50 PM57 °FScattered clouds.8 mph55%30.21 "HgN/A
3:20 PM55 °FBroken clouds.8 mph59%30.21 "HgN/A
2:50 PM55 °FBroken clouds.6 mph55%30.21 "HgN/A
2:20 PM55 °FBroken clouds.2 mph55%30.21 "HgN/A
1:50 PM55 °FBroken clouds.5 mph51%30.21 "HgN/A
1:20 PM54 °FBroken clouds.8 mph58%30.21 "HgN/A
12:50 PM54 °FBroken clouds.7 mph63%30.24 "HgN/A
12:20 PM54 °FBroken clouds.6 mph58%30.24 "HgN/A
11:50 AM54 °FBroken clouds.7 mph63%30.24 "HgN/A
11:20 AM52 °FBroken clouds.8 mph67%30.24 "HgN/A
10:50 AM52 °FBroken clouds.5 mph62%30.24 "HgN/A
10:20 AM54 °FPartly sunny.2 mph63%30.24 "HgN/A
9:50 AM52 °FPartly sunny.6 mph72%30.24 "HgN/A
9:20 AM52 °FPartly sunny.6 mph67%30.24 "HgN/A
8:50 AM50 °FPartly sunny.6 mph76%30.21 "HgN/A
8:20 AM50 °FPartly sunny.6 mph76%30.21 "HgN/A
7:50 AM50 °FSunny.7 mph71%30.21 "Hg10 mi
7:20 AM50 °FSunny.6 mph71%30.21 "Hg10 mi
6:50 AM48 °FPassing clouds.5 mph76%30.21 "HgN/A
6:20 AM48 °FClear.5 mph76%30.21 "Hg10 mi
5:50 AM46 °FClear.2 mph82%30.21 "Hg10 mi
5:20 AM46 °FClear.3 mph82%30.21 "Hg10 mi
4:50 AM46 °FClear.3 mph82%30.21 "Hg10 mi
4:20 AM48 °FClear.5 mph76%30.21 "Hg10 mi
3:50 AM48 °FClear.6 mph76%30.21 "Hg10 mi
3:20 AM48 °FClear.6 mph76%30.21 "Hg10 mi
2:50 AM48 °FClear.10 mph71%30.21 "Hg10 mi
2:20 AM48 °FClear.6 mph71%30.18 "Hg10 mi
1:50 AM48 °FClear.7 mph71%30.18 "Hg10 mi
1:20 AM48 °FClear.8 mph71%30.18 "Hg10 mi
12:50 AM48 °FClear.7 mph71%30.18 "Hg10 mi
12:20 AM48 °FPassing clouds.3 mph71%30.18 "HgN/A
11:20 PM
Tue, May 26
50 °FClear.6 mph67%30.18 "Hg10 mi
10:50 PM52 °FClear.7 mph62%30.18 "Hg10 mi
10:20 PM52 °FPassing clouds.8 mph62%30.18 "HgN/A
9:50 PM52 °FSunny.6 mph62%30.18 "Hg10 mi
9:20 PM54 °FSunny.9 mph54%30.15 "Hg10 mi
8:50 PM54 °FPassing clouds.10 mph54%30.15 "HgN/A
8:20 PM54 °FPassing clouds.9 mph58%30.15 "HgN/A
7:50 PM55 °FSunny.15 mph51%30.12 "Hg10 mi
7:20 PM55 °FBroken clouds.14 mph55%30.12 "HgN/A
Weather by CustomWeather, © 2015

See weather overviewHow to use our weather pages